Regional Weather Roundup
Issued by NWS

Home | Current Version | Previous Version | Graphics & Text | Print | Product List | Glossary On
Versions: 1 2 3 4 5 6 7 8 9 10 11 12 13 14 15 16 17 18 19 20 21 22 23 24 25 26 27
000
ASUS45 KCYS 232110
RWRWY

WYOMING REGIONAL WEATHER ROUNDUP
NATIONAL WEATHER SERVICE CHEYENNE WY
300 PM MDT TUE AUG 23 2016

NOTE:  "FAIR" INDICATES FEW OR NO CLOUDS BELOW 12,000 FEET
WITH NO SIGNIFICANT WEATHER AND/OR OBSTRUCTIONS TO VISIBILITY.

WYZ001-232200-
YELLOWSTONE NATIONAL PARK

CITY           SKY/WX    TMP DP  RH WIND       PRES   REMARKS
LK YELLOWSTONE   N/A     64   8  11 VRB6G20   30.23F
W YELLOWSTONE  NOT AVBL

$$
WYZ002>013-054>058-071-098>099-232200-
NORTHERN WYOMING

CITY           SKY/WX    TMP DP  RH WIND       PRES   REMARKS
JACKSON        SUNNY     72  18  13 SW13G30   30.16R
CODY           FAIR      72  34  25 N7        30.05F
GREYBULL       FAIR      81  13   7 NW6       29.96F
WORLAND        FAIR      80  16   9 N7        29.98F
SHERIDAN       FAIR      76  30  18 N7        30.03S
BUFFALO        FAIR      73  26  17 VRB3      30.08S
GILLETTE       FAIR      74  26  16 E5        30.03F
HULETT         FAIR      73  28  19 CALM      30.04S
NEWCASTLE      FAIR      77  23  13 NW13G21   30.02R

$$
WYZ014>020-022>026-101>103-232200-
CENTRAL WYOMING

CITY           SKY/WX    TMP DP  RH WIND       PRES   REMARKS
BIG PINEY      FAIR      77  16  10 NW23G30   30.17F
PINEDALE       FAIR      75  16  10 W21G26    30.19S
DUBOIS         FAIR      72  14  11 NW20G35   30.14S
LANDER         FAIR      84  18   8 NW16G29   30.03F
RIVERTON       FAIR      82  12   7 MISG      30.02F
CASPER         FAIR      81  16   9 N5        30.04F
DOUGLAS        FAIR      82  19   9 NW10G17   30.05F

$$
WYZ021-027>030-104>119-232200-
SOUTHERN WYOMING

CITY           SKY/WX    TMP DP  RH WIND       PRES   REMARKS
EVANSTON       FAIR      78  26  14 W22G29    30.22F
FORT BRIDGER   MOCLDY    79  26  14 W16G32    30.22F
ROCK SPRINGS   FAIR      78  21  12 W14G29    30.16F
DIXON          FAIR      82  25  12 W14G24    30.19S
RAWLINS        FAIR      81  15   8 W25G35    30.15F
SARATOGA       FAIR      77  21  12 W13G23    30.20S
LARAMIE        FAIR      76  21  12 W8G22     30.18F
CHEYENNE       FAIR      79  25  13 N9        30.11F
TORRINGTON     FAIR      85  19   9 N8        29.98S
PINE BLUFFS    FAIR      79  27  14 N12       30.05F

$$




USA.gov is the U.S. government's official web portal to all federal, state and local government web resources and services.